When you browse on this site, cookies collect data to enhance your experience and personalize the content and advertising you see.
Visit our Privacy Policy to learn more. By continuing to use the site, you agree to this use of cookies and data.
  • In Hungary
  • List of Countries
  • For 7 days
  • Water Temperature
  • Weather Map
  • News
  • Weather Widgets
  • user-avatar
    Login

    Hourly Weather Wachabno

    Today, 10 April, Friday

    Time Temperature Precipitation Wind Pressure Humidity
    00:00 +7°C° 0 mm 2 mps 763 mmHg 68%
    01:00 +6°C° 0 mm 2 mps 763 mmHg 65%
    02:00 +5°C° 0 mm 2 mps 763 mmHg 65%
    03:00 +6°C° 0 mm 1 mps 763 mmHg 66%
    04:00 +6°C° 0 mm 1 mps 763 mmHg 66%
    05:00 +6°C° 0 mm 1 mps 763 mmHg 65%
    06:00 +7°C° 0 mm 1 mps 764 mmHg 64%
    07:00 +8°C° 0 mm 1 mps 764 mmHg 65%
    08:00 +8°C° 0 mm 2 mps 764 mmHg 58%
    09:00 +10°C° 0 mm 2 mps 764 mmHg 51%
    10:00 +12°C° 0 mm 2 mps 764 mmHg 44%
    11:00 +13°C° 0 mm 2 mps 764 mmHg 41%
    12:00 +14°C° 0 mm 2 mps 764 mmHg 37%
    13:00 +15°C° 0 mm 2 mps 763 mmHg 34%
    14:00 +15°C° 0 mm 2 mps 763 mmHg 35%
    15:00 +15°C° 0 mm 2 mps 762 mmHg 36%
    16:00 +14°C° 0 mm 3 mps 762 mmHg 37%
    17:00 +14°C° 0 mm 2 mps 762 mmHg 43%
    18:00 +12°C° 0 mm 2 mps 762 mmHg 49%
    19:00 +9°C° 0 mm 2 mps 762 mmHg 55%
    20:00 +8°C° 0 mm 2 mps 762 mmHg 57%
    21:00 +8°C° 0 mm 1 mps 763 mmHg 60%
    22:00 +7°C° 0 mm 1 mps 763 mmHg 62%
    23:00 +7°C° 0 mm 1 mps 763 mmHg 65%

    Tomorrow, 11 April, Saturday

    Time Temperature Precipitation Wind Pressure Humidity
    00:00 +6°C° 0 mm 1 mps 763 mmHg 67%
    01:00 +6°C° 0 mm 1 mps 763 mmHg 70%
    02:00 +5°C° 0 mm 1 mps 763 mmHg 71%
    03:00 +5°C° 0 mm 1 mps 763 mmHg 73%
    04:00 +4°C° 0 mm 1 mps 764 mmHg 75%
    05:00 +5°C° 0 mm 1 mps 764 mmHg 72%
    06:00 +6°C° 0 mm 1 mps 764 mmHg 70%
    07:00 +6°C° 0 mm 1 mps 764 mmHg 67%
    08:00 +8°C° 0 mm 1 mps 764 mmHg 60%
    09:00 +10°C° 0 mm 1 mps 765 mmHg 54%
    10:00 +12°C° 0 mm 1 mps 765 mmHg 47%
    11:00 +13°C° 0 mm 1 mps 765 mmHg 43%
    12:00 +14°C° 0 mm 1 mps 765 mmHg 40%
    13:00 +15°C° 0 mm 1 mps 764 mmHg 36%
    14:00 +15°C° 0 mm 1 mps 764 mmHg 36%
    15:00 +15°C° 0 mm 1 mps 763 mmHg 36%
    16:00 +15°C° 0 mm 1 mps 763 mmHg 36%
    17:00 +13°C° 0 mm 1 mps 763 mmHg 41%
    18:00 +12°C° 0 mm 1 mps 763 mmHg 46%
    19:00 +9°C° 0 mm 2 mps 762 mmHg 51%
    20:00 +9°C° 0 mm 2 mps 762 mmHg 53%
    21:00 +8°C° 0 mm 2 mps 762 mmHg 55%
    22:00 +7°C° 0 mm 2 mps 762 mmHg 57%
    23:00 +7°C° 0 mm 2 mps 762 mmHg 60%

    Day after tomorrow, 12 April, Sunday

    Time Temperature Precipitation Wind Pressure Humidity
    00:00 +7°C° 0 mm 2 mps 762 mmHg 62%
    01:00 +6°C° 0 mm 2 mps 762 mmHg 65%
    02:00 +6°C° 0 mm 2 mps 761 mmHg 68%
    03:00 +6°C° 0 mm 2 mps 760 mmHg 70%
    04:00 +5°C° 0 mm 2 mps 760 mmHg 73%
    05:00 +6°C° 0 mm 2 mps 760 mmHg 72%
    06:00 +7°C° 0 mm 2 mps 759 mmHg 70%
    07:00 +8°C° 0 mm 2 mps 759 mmHg 68%
    08:00 +10°C° 0 mm 2 mps 759 mmHg 61%
    09:00 +14°C° 0 mm 2 mps 758 mmHg 53%
    10:00 +16°C° 0 mm 3 mps 758 mmHg 46%
    11:00 +18°C° 0 mm 3 mps 757 mmHg 42%
    12:00 +19°C° 0 mm 3 mps 757 mmHg 38%
    13:00 +21°C° 0 mm 3 mps 756 mmHg 34%
    14:00 +21°C° 0 mm 3 mps 755 mmHg 34%
    15:00 +21°C° 0 mm 3 mps 755 mmHg 34%
    16:00 +21°C° 0 mm 3 mps 754 mmHg 34%
    17:00 +19°C° 0 mm 3 mps 754 mmHg 41%
    18:00 +17°C° 0 mm 2 mps 753 mmHg 47%
    19:00 +15°C° 0 mm 2 mps 753 mmHg 54%
    20:00 +14°C° 0 mm 2 mps 753 mmHg 57%
    21:00 +14°C° 0 mm 2 mps 752 mmHg 60%
    22:00 +13°C° 0 mm 2 mps 752 mmHg 63%
    23:00 +12°C° 0 mm 2 mps 752 mmHg 65%

    13 April, Monday

    Time Temperature Precipitation Wind Pressure Humidity
    00:00 +12°C° 0 mm 2 mps 751 mmHg 67%
    01:00 +10°C° 0 mm 2 mps 751 mmHg 69%
    02:00 +10°C° 0.1 mm 3 mps 751 mmHg 70%
    03:00 +10°C° 0.1 mm 3 mps 750 mmHg 72%
    04:00 +10°C° 0.1 mm 3 mps 750 mmHg 74%
    05:00 +10°C° 0.1 mm 3 mps 750 mmHg 75%
    06:00 +11°C° 0.1 mm 4 mps 750 mmHg 77%
    07:00 +12°C° 0.1 mm 4 mps 749 mmHg 78%
    08:00 +13°C° 0.1 mm 4 mps 749 mmHg 74%
    09:00 +14°C° 0.1 mm 5 mps 749 mmHg 70%
    10:00 +16°C° 0.1 mm 5 mps 749 mmHg 66%
    11:00 +15°C° 0.6 mm 5 mps 749 mmHg 67%
    12:00 +15°C° 0.6 mm 6 mps 749 mmHg 67%
    13:00 +14°C° 0.6 mm 6 mps 749 mmHg 67%
    14:00 +11°C° 0.2 mm 6 mps 750 mmHg 65%
    15:00 +10°C° 0.2 mm 7 mps 750 mmHg 64%
    16:00 +8°C° 0.2 mm 7 mps 751 mmHg 62%
    17:00 +6°C° 0.2 mm 7 mps 752 mmHg 59%
    18:00 +5°C° 0.2 mm 6 mps 752 mmHg 56%
    19:00 +5°C° 0.2 mm 5 mps 753 mmHg 53%
    20:00 +3°C° 0 mm 5 mps 754 mmHg 53%
    21:00 +1°C° 0 mm 4 mps 754 mmHg 52%
    22:00 0°C° 0 mm 4 mps 755 mmHg 52%
    23:00 0°C° 0 mm 4 mps 755 mmHg 55%

    14 April, Tuesday

    Time Temperature Precipitation Wind Pressure Humidity
    00:00 0°C° 0 mm 4 mps 756 mmHg 57%
    01:00 -1°C° 0 mm 4 mps 756 mmHg 60%
    02:00 -1°C° 0 mm 4 mps 756 mmHg 61%
    03:00 -1°C° 0 mm 4 mps 756 mmHg 61%
    04:00 -1°C° 0 mm 4 mps 756 mmHg 62%
    05:00 -1°C° 0 mm 4 mps 757 mmHg 62%
    06:00 0°C° 0 mm 4 mps 757 mmHg 61%
    07:00 0°C° 0 mm 5 mps 758 mmHg 61%
    08:00 +2°C° 0 mm 5 mps 758 mmHg 54%
    09:00 +3°C° 0 mm 5 mps 758 mmHg 46%
    10:00 +5°C° 0 mm 6 mps 759 mmHg 38%
    11:00 +5°C° 0 mm 6 mps 759 mmHg 38%
    12:00 +7°C° 0 mm 6 mps 759 mmHg 38%
    13:00 +7°C° 0 mm 6 mps 759 mmHg 39%
    14:00 +7°C° 0 mm 6 mps 759 mmHg 38%
    15:00 +7°C° 0 mm 5 mps 759 mmHg 37%
    16:00 +7°C° 0 mm 5 mps 759 mmHg 37%
    17:00 +6°C° 0 mm 4 mps 759 mmHg 42%
    18:00 +5°C° 0 mm 3 mps 759 mmHg 48%
    19:00 +5°C° 0 mm 2 mps 760 mmHg 53%
    20:00 +4°C° 0 mm 2 mps 760 mmHg 56%
    21:00 +3°C° 0 mm 2 mps 760 mmHg 59%
    22:00 +3°C° 0 mm 1 mps 761 mmHg 61%
    23:00 +3°C° 0 mm 1 mps 761 mmHg 63%

    15 April, Wednesday

    Time Temperature Precipitation Wind Pressure Humidity
    00:00 +2°C° 0 mm 1 mps 761 mmHg 64%
    01:00 +2°C° 0 mm 1 mps 761 mmHg 66%
    02:00 +1°C° 0 mm 2 mps 761 mmHg 68%
    03:00 -1°C° 0 mm 2 mps 761 mmHg 70%
    04:00 -1°C° 0 mm 2 mps 761 mmHg 72%
    05:00 +1°C° 0 mm 2 mps 761 mmHg 69%
    06:00 +2°C° 0 mm 2 mps 761 mmHg 66%
    07:00 +3°C° 0 mm 2 mps 761 mmHg 64%
    08:00 +4°C° 0 mm 3 mps 761 mmHg 58%
    09:00 +7°C° 0 mm 3 mps 760 mmHg 52%
    10:00 +9°C° 0 mm 3 mps 760 mmHg 45%
    11:00 +11°C° 0 mm 3 mps 760 mmHg 42%
    12:00 +12°C° 0 mm 3 mps 760 mmHg 39%
    13:00 +13°C° 0 mm 3 mps 759 mmHg 36%
    14:00 +13°C° 0 mm 3 mps 759 mmHg 37%
    15:00 +13°C° 0 mm 3 mps 759 mmHg 38%
    16:00 +13°C° 0 mm 4 mps 758 mmHg 38%
    17:00 +12°C° 0 mm 3 mps 758 mmHg 45%
    18:00 +10°C° 0 mm 3 mps 758 mmHg 51%
    19:00 +8°C° 0 mm 2 mps 758 mmHg 58%
    20:00 +8°C° 0 mm 2 mps 758 mmHg 63%
    21:00 +7°C° 0 mm 2 mps 758 mmHg 68%
    22:00 +6°C° 0 mm 2 mps 759 mmHg 74%
    23:00 +5°C° 0 mm 2 mps 759 mmHg 76%
    Show more